User: anonymous   Login
Location: Unspecified
(0.0000°N, 0.0000°E)
Time: 11:18:34
(UTC+02:00)
Language:

DELTA 2 R/B (1) - Orbit

View from above orbital plane
View from above orbital plane
View from above satellite
View from above satellite

Ground track
Ground track

The orbit data is extracted from the following two-line orbital elements,

1 27665U 03005C   18115.94305580 -.00000074 +00000-0 +45672-5 0  9995
2 27665 039.5764 317.7344 0007931 152.8400 293.1235 14.28473856795577
Epoch (UTC): 25 April 2018 22:38:00
Eccentricity: 0.0007931
inclination: 39.5764°
perigee height: 791 km
apogee height: 802 km
right ascension of ascending node: 317.7344°
argument of perigee: 152.8400°
revolutions per day: 14.28473856
mean anomaly at epoch: 293.1235°
orbit number at epoch: 79557

The dashed part of the orbit path shows where the satellite is in the earth's shadow,  

DLR